www.pogodaiklimat.ru

Погода и климат >> Архив погоды >> Украина >> Лубны


ПОГОДА в Лубнах

  • Прогноз погоды в Лубнах
  • Монитор погоды в Лубнах

АРХИВ ПОГОДЫ в Лубнах

Время (UTC), дата Ветер
(напр.,м/с)
 
Видим.   Явления Облачность Т
(С)
Тd
(С)
f
(%)
Тe
(С)
Тes
(С)
Комфортность P
(гПа)
Po
(гПа)
Тmin
(С)
Tmax
(С)
R
(мм)
R24
(мм)
S
(см)
00 9.06 штиль 0 10 км ясно +19.0 +15.1 78 +20 +20 1020.9 1002.3
03 9.06 штиль 0 10 км 3/0
[Ac trans]
+18.7 +15.1 80 +20 +20 1021.2 1002.6
06 9.06 В 1 10 км 8/1 1000 м
[Cu med, cong Ac trans]
+22.5 +17.7 74 +28 +32 душно 1021.8 1003.5 +18.7
09 9.06 В 2 10 км 8/6 1000 м
[Cu med, cong Ci fib]
+25.4 +16.1 56 +29 +35 душно 1022.0 1003.8
12 9.06 В 2 10 км в посл. час гроза 9/6 600 м
[Cu med, cong Ac trans]
+24.1 +16.8 64 +28 +31 душно 1021.6 1003.4
15 9.06 З 2 10 км 8/0
[Ci fib]
+24.8 +15.7 57 +28 +31 жарко 1020.3 1002.1
18 9.06 СЗ 2 10 км 6/0
[Ci fib]
+23.9 +18.0 70 +28 +28 душно 1020.3 1002.1 +26.0
21 9.06 СЗ 1 10 км 6/0
[Ac trans]
+20.4 +15.9 75 +24 +24 комфорт 1020.9 1002.4
00 10.06 СВ 1 10 км ясно +19.4 +15.7 79 +22 +22 комфорт 1020.6 1002.1
03 10.06 штиль 0 10 км 1/0
[Ac cast]
+18.3 +15.0 81 +19 +20 1020.9 1002.3
06 10.06 СВ 2 10 км 3/0
[Ac cast Cc]
+25.7 +17.4 60 +30 +37 душно 1020.8 1002.7 +18.0
09 10.06 СВ 2 10 км ясно +29.5 +13.4 37 +31 +48 жарко 1020.4 1002.5
12 10.06 В 2 10 км 3/3 1000 м
[Cu med, cong]
+30.8 +11.1 30 +31 +41 жарко 1019.1 1001.3
15 10.06 В 2 10 км 3/1 1000 м
[Cu med, cong Cc]
+30.5 +10.6 29 +30 +34 жарко 1018.3 1000.5
18 10.06 СВ 1 10 км 5/1 1000 м
[Cu med, cong Ac cuf Ci]
+24.1 +15.7 59 +27 +27 жарко 1020.5 1002.3 +30.9
21 10.06 СВ 1 10 км ясно +22.8 +15.7 64 +27 +27 душно 1018.9 1000.6
00 11.06 СВ 1 10 км ясно +21.1 +15.7 71 +24 +24 комфорт 1018.7 1000.3
03 11.06 СВ 1 10 км ясно +20.4 +15.5 73 +24 +25 комфорт 1018.9 1000.5
06 11.06 С 2 10 км ясно +24.5 +16.5 61 +28 +37 душно 1019.0 1000.8 +19.4
09 11.06 С 2 10 км ясно +29.4 +15.2 42 +32 +49 душно 1018.3 1000.4
12 11.06 СВ 3 10 км 3/3 1000 м
[Cu med, cong]
+30.5 +11.9 32 +31 +39 жарко 1017.2 999.4
15 11.06 СВ 2 10 км 3/3 1000 м
[Cu med, cong]
+30.6 +11.1 30 +31 +34 жарко 1016.3 998.5
18 11.06 СВ 1 10 км 3/1 1000 м
[Cu med, cong Ci fib]
+25.4 +16.3 57 +29 +29 душно 1017.1 999.0 +31.0
21 11.06 С 1 10 км ясно +22.4 +16.3 68 +27 +27 душно 1017.4 999.1
00 12.06 штиль 0 10 км ясно +20.3 +16.1 77 +23 +23 комфорт 1016.7 998.3
03 12.06 СВ 1 10 км ясно +20.5 +15.8 74 +25 +25 комфорт 1016.7 998.3
06 12.06 С 1 10 км ясно +25.2 +16.6 59 +29 +39 душно 1016.2 998.1 +20.0
09 12.06 СВ 2 10 км ясно +30.0 +13.5 36 +31 +49 жарко 1015.6 997.8
12 12.06 СВ 2 10 км ясно +31.2 +12.3 31 +32 +46 жарко 1014.2 996.5
15 12.06 СВ 2 10 км ясно +31.3 +12.0 31 +32 +36 жарко 1013.5 995.8
18 12.06 С 1 10 км 3/3 1000 м
[Cu med, cong]
+27.1 +16.1 51 +30 +30 душно 1014.2 996.3 +31.7
21 12.06 С 1 10 км 1/0
[Ac trans]
+24.9 +14.9 54 +28 +28 жарко 1015.1 997.0
00 13.06 штиль 0 10 км ясно +21.1 +15.4 70 +24 +24 комфорт 1015.5 997.2
03 13.06 СВ 1 10 км 4/3 1000 м
[Cu med, cong Ac trans]
+21.9 +14.8 64 +25 +26 комфорт 1015.7 997.4
06 13.06 С 2 10 км 8/3 1000 м
[Cu med, cong Ci fib]
+26.2 +18.0 61 +31 +36 очень
душно
1016.3 998.3 +21.1
09 13.06 С 2 10 км 9/3 1000 м
[Cu med, cong Ci fib]
+29.8 +17.7 48 +34 +44 очень
душно
1016.6 998.8
12 13.06 СЗ 3 10 км 9/6 600 м
[Cu med, cong Ci fib]
+30.6 +15.4 40 +33 +37 душно 1016.5 998.7
15 13.06 С 2 10 км 9/3 1000 м
[Cu med, cong Ci fib]
+29.2 +17.7 50 +34 +36 очень
душно
1016.2 998.4
18 13.06 штиль 0 10 км 8/0
[Ci fib]
+26.4 +18.0 60 +31 +31 душно 1017.3 999.3 +31.2
21 13.06 штиль 0 10 км 8/0
[Ci fib]
+23.9 +17.6 68 +28 +28 душно 1018.9 1000.7
00 14.06 СВ 1 10 км 6/0
[Ci fib]
+20.9 +15.9 73 +25 +25 комфорт 1019.8 1001.4
03 14.06 СВ 2 10 км 3/0
[Ci fib]
+20.0 +15.1 73 +23 +24 комфорт 1020.0 1001.5
06 14.06 В 2 10 км 1/0
[Ci fib]
+23.5 +14.4 57 +26 +35 жарко 1020.1 1001.8 +19.7
09 14.06 В 1 10 км 1/1 1000 м
[Cu hum]
+27.3 +15.7 49 +30 +49 душно 1019.7 1001.7
12 14.06 СВ 2 10 км 3/3 1000 м
[Cu hum]
+28.3 +15.0 44 +31 +41 душно 1018.9 1000.9
15 14.06 С 1 10 км 3/1 1000 м
[Cu hum Ci fib]
+29.6 +16.3 45 +33 +37 душно 1017.8 999.9
18 14.06 штиль 0 10 км 3/0
[Cc]
+25.6 +18.7 66 +31 +31 очень
душно
1017.2 999.1 +30.0
21 14.06 штиль 0 10 км 3/0
[Ci fib]
+22.0 +12.9 56 +25 +25 комфорт 1018.1 999.8
00 15.06 С 1 10 км 3/0
[Ac trans Ci fib]
+19.8 +17.8 88 +24 +24 комфорт 1017.0 998.6
03 15.06 С 1 10 км 1/0
[Ci fib]
+20.2 +17.6 85 +24 +25 комфорт 1016.4 998.0
06 15.06 З 1 10 км 3/0
[Ci fib]
+26.7 +17.7 58 +31 +41 душно 1015.6 997.6 +19.5
09 15.06 ЮЗ 2 10 км 3/3 1000 м
[Cu med, cong]
+29.4 +17.6 49 +34 +46 очень
душно
1014.9 997.1
12 15.06 З 3 10 км 3/3 1000 м
[Cu med, cong]
+31.4 +12.8 32 +32 +41 жарко 1013.1 995.4
15 15.06 СЗ 4 10 км 3/1 1000 м
[Cu med, cong Ci fib]
+30.5 +10.2 28 +30 +33 жарко 1012.9 995.1
18 15.06 СЗ 1 10 км 1/0
[Ci fib]
+25.9 +15.0 51 +29 +29 душно 1013.1 995.1 +32.0
21 15.06 СЗ 1 10 км ясно +22.3 +13.3 57 +25 +25 комфорт 1013.2 995.0

 

Местоположение метеостанции Лубны (Полтавская область, Украина): широта 50.00 долгота 33.02 высота над уровнем моря 158 м.

В архиве по умолчанию представлена погода в Лубнах за последнюю неделю. Архивные данные за месяц целиком и за предыдущие месяцы, начиная с января 2011 года, Вы можете получить, выбрав интересующий диапазон дат из раскрывающегося списка и нажав кнопку "Ввод!".


*Определитесь, кто Вы:
робот инопланетянин человек

Внимание! Время в таблицах - всемирное. Для получения местного времени необходимо прибавить поправку, которая равна 2 ч.

Смотрите также архив погоды в соседних городах и на ближайших метеорологических станциях:

Погода в Веселом Подоле (Полтавская область, Украина) (46 км)
Погода в Прилуках (Черниговская область, Украина) (79 км)
Погода в Золотоноше (Черкасская область, Украина) (79 км)
Погода в Гадяче (Полтавская область, Украина) (80 км)
Погода в Яготине (Киевская область, Украина) (90 км)
Погода в Ромнах (Сумская область, Украина) (91 км)
Погода в Черкассах (Черкасская область, Украина) (95 км)
Погода в Чигирине (Черкасская область, Украина) (105 км)
Погода в Светловодске (Кировоградская область, Украина) (107 км)
Погода в Каневе (Черкасская область, Украина) (112 км)

Пояснения к столбцам:

Ветер - указаны скорость ветра в м/с - средняя за 10 мин, порывы в срок и между сроками (в фигурных скобках) и направление, откуда дует ветер: С - северный, СВ - северо-восточный, В - восточный, ЮВ - юго-восточный, Ю - южный, ЮЗ - юго-западный, З - западный, СЗ - северо-западный.
Видимость - горизонтальная дальность видимости в метрах или километрах. При видимости от 1 до 10 км при отсутствии осадков обычно наблюдается дымка, при ухудшении видимости до 1 км и менее - туман. В сухую погоду видимость может ухудшаться дымом, пылью или мглою.
Явления - указаны атмосферные явления, наблюдавшиеся в срок или в последний час перед сроком; фигурными скобками обозначены явления, наблюдавшиеся между сроками (за 1-3 часа до срока); квадратными скобками обозначены град или гололедные отложения с указанием их диаметра в мм.
Облачность - указаны через наклонную черту общая и нижняя облачность в баллах и высота нижней границы облаков в метрах; квадратными скобками обозначены формы облаков: Ci - перистые, Cs - перисто-слоистые, Cc - перисто-кучевые, Ac - высококучевые, As - высокослоистые, Sc - слоисто-кучевые, Ns - слоисто-дождевые, Cu - кучевые, Cb - кучево-дождевые. Подробнее классификацию облаков см. в Атласе облаков (PDF).
T - Температура воздуха - температура, измеренная на высоте 2 м над землей.
Td - Температура точки росы - температура, при понижении до которой содержащийся в воздухе водяной пар достигнет насыщения.
f - Относительная влажность воздуха - влажноcть воздуха, измеренная на высоте 2 м над землей.
Te - Эффективная температура - температура, которую ощущает одетый по сезону человек в тени. Характеристика душности погоды. При расчете учитывается влияние влажности воздуха и скорости ветра на теплоощущения человека.
Tes - Эффективная температура на солнце - температура, которую ощущает человек, с поправкой на солнечный нагрев. Характеристика знойности погоды. Зависит от высоты солнца над горизонтом, облачности и скорости ветра. Ночью, в пасмурную погоду, а также при ветре 12 м/с и более поправка равна нулю.
P - Атмосферное давление - приведенное к уровню моря атмосферное давление.
Po - Атмосферное давление - измеренное на уровне метеостанции атмосферное давление.
Tmin - Минимальная температура - минимум температуры воздуха на высоте 2 м над землей.
Tmax - Максимальная температура - максимум температуры воздуха на высоте 2 м над землей.
R - Количество осадков - Количество выпавших осадков за период времени, мм. При наведении курсора мыши на число - период времени, за который выпало указанное количество осадков.
R24 - Количество осадков - Количество выпавших осадков за 24 часа, мм.
S - Снежный покров - Высота снежного покрова, см. При наведении курсора мыши на число - состояние снежного покрова и степень покрытия местности в баллах.